Time,TemperatureF,DewpointF,PressureIn,WindDirection,WindDirectionDegrees,WindSpeedMPH,WindSpeedGustMPH,Humidity,HourlyPrecipIn,Conditions,Clouds,dailyrainin,SoftwareType,DateUTC
2013-03-17 00:00:00,34.3,21.5,29.73,SW,225,0.0,0.0,59,0.00,CLR,,0.00,WeatherDisplay:10.37,2013-03-17 04:00:00,
2013-03-17 00:05:00,34.3,23.4,29.74,SW,225,0.0,0.0,64,0.00,CLR,,0.00,WeatherDisplay:10.37,2013-03-17 04:05:00,
2013-03-17 00:10:00,34.3,23.4,29.74,WSW,248,0.0,0.0,64,0.00,CLR,,0.00,WeatherDisplay:10.37,2013-03-17 04:10:00,
2013-03-17 00:15:00,34.3,23.4,29.74,WSW,248,0.0,0.0,64,0.00,CLR,,0.00,WeatherDisplay:10.37,2013-03-17 04:15:00,
2013-03-17 00:20:00,34.3,23.4,29.74,WSW,248,0.0,0.0,64,0.00,CLR,,0.00,WeatherDisplay:10.37,2013-03-17 04:20:00,
2013-03-17 00:25:00,34.3,23.4,29.74,WSW,248,0.0,0.0,64,0.00,CLR,,0.00,WeatherDisplay:10.37,2013-03-17 04:25:00,
2013-03-17 00:30:00,34.3,23.4,29.74,WSW,248,0.0,0.0,64,0.00,CLR,,0.00,WeatherDisplay:10.37,2013-03-17 04:30:00,
2013-03-17 00:35:00,34.3,23.4,29.74,WSW,248,0.0,0.0,64,0.00,CLR,,0.00,WeatherDisplay:10.37,2013-03-17 04:35:00,
2013-03-17 00:40:00,34.3,23.4,29.74,WSW,248,0.0,0.0,64,0.00,CLR,,0.00,WeatherDisplay:10.37,2013-03-17 04:40:00,
2013-03-17 00:45:00,34.3,23.4,29.74,WSW,248,0.0,0.0,64,0.00,CLR,,0.00,WeatherDisplay:10.37,2013-03-17 04:45:00,
2013-03-17 00:50:00,34.3,23.4,29.74,WSW,248,0.0,0.0,64,0.00,CLR,,0.00,WeatherDisplay:10.37,2013-03-17 04:50:00,
2013-03-17 00:55:00,34.3,23.4,29.74,WSW,248,0.0,0.0,64,0.00,CLR,,0.00,WeatherDisplay:10.37,2013-03-17 04:55:00,
2013-03-17 01:00:00,34.0,24.2,29.76,West,270,0.0,0.0,67,0.00,CLR,,0.00,WeatherDisplay:10.37,2013-03-17 05:00:00,
2013-03-17 01:05:00,33.8,24.0,29.75,SW,225,0.5,0.5,67,0.00,CLR,,0.00,WeatherDisplay:10.37,2013-03-17 05:05:00,
2013-03-17 01:10:00,33.8,24.4,29.74,SW,225,0.0,1.1,68,0.00,CLR,,0.00,WeatherDisplay:10.37,2013-03-17 05:10:00,
2013-03-17 01:15:00,33.8,24.4,29.74,SW,225,0.0,0.0,68,0.00,CLR,,0.00,WeatherDisplay:10.37,2013-03-17 05:15:00,
2013-03-17 01:20:00,33.8,24.4,29.74,SW,225,0.0,0.0,68,0.00,CLR,,0.00,WeatherDisplay:10.37,2013-03-17 05:20:00,
2013-03-17 01:25:00,33.8,24.4,29.74,SW,225,0.0,0.0,68,0.00,CLR,,0.00,WeatherDisplay:10.37,2013-03-17 05:25:00,
2013-03-17 01:30:00,33.8,24.4,29.74,SW,225,0.0,0.0,68,0.00,CLR,,0.00,WeatherDisplay:10.37,2013-03-17 05:30:00,
2013-03-17 01:35:00,33.8,24.4,29.74,SW,225,0.0,0.0,68,0.00,CLR,,0.00,WeatherDisplay:10.37,2013-03-17 05:35:00,
2013-03-17 01:40:00,33.8,24.4,29.74,SW,225,0.0,0.0,68,0.00,CLR,,0.00,WeatherDisplay:10.37,2013-03-17 05:40:00,
2013-03-17 01:45:00,33.8,24.4,29.74,SW,225,0.0,0.0,68,0.00,CLR,,0.00,WeatherDisplay:10.37,2013-03-17 05:45:00,
2013-03-17 01:50:00,33.8,24.4,29.74,SW,225,0.0,0.0,68,0.00,CLR,,0.00,WeatherDisplay:10.37,2013-03-17 05:50:00,
2013-03-17 01:55:00,33.8,24.4,29.74,SW,225,0.0,0.0,68,0.00,CLR,,0.00,WeatherDisplay:10.37,2013-03-17 05:55:00,
2013-03-17 02:00:00,32.7,23.7,29.77,West,270,0.0,0.0,69,0.00,CLR,,0.00,WeatherDisplay:10.37,2013-03-17 06:00:00,
2013-03-17 02:05:00,32.5,23.8,29.76,West,270,0.0,0.0,70,0.00,CLR,,0.00,WeatherDisplay:10.37,2013-03-17 06:05:00,
2013-03-17 02:10:00,32.5,23.8,29.76,West,270,0.0,0.0,70,0.00,CLR,,0.00,WeatherDisplay:10.37,2013-03-17 06:10:00,
2013-03-17 02:15:00,32.5,23.8,29.76,West,270,0.0,0.0,70,0.00,CLR,,0.00,WeatherDisplay:10.37,2013-03-17 06:15:00,
2013-03-17 02:20:00,32.5,23.8,29.76,West,270,0.0,0.0,70,0.00,CLR,,0.00,WeatherDisplay:10.37,2013-03-17 06:20:00,
2013-03-17 02:25:00,32.5,23.8,29.76,West,270,0.0,0.0,70,0.00,CLR,,0.00,WeatherDisplay:10.37,2013-03-17 06:25:00,
2013-03-17 02:30:00,32.5,23.8,29.76,West,270,0.0,0.0,70,0.00,CLR,,0.00,WeatherDisplay:10.37,2013-03-17 06:30:00,
2013-03-17 02:35:00,32.5,23.8,29.76,West,270,0.0,0.0,70,0.00,CLR,,0.00,WeatherDisplay:10.37,2013-03-17 06:35:00,
2013-03-17 02:40:00,32.5,23.8,29.76,West,270,0.0,0.0,70,0.00,CLR,,0.00,WeatherDisplay:10.37,2013-03-17 06:40:00,
2013-03-17 02:45:00,32.5,23.8,29.76,West,270,0.0,0.0,70,0.00,CLR,,0.00,WeatherDisplay:10.37,2013-03-17 06:45:00,
2013-03-17 02:50:00,32.5,23.8,29.76,West,270,0.0,0.0,70,0.00,CLR,,0.00,WeatherDisplay:10.37,2013-03-17 06:50:00,
2013-03-17 02:55:00,32.5,23.8,29.76,West,270,0.0,0.0,70,0.00,CLR,,0.00,WeatherDisplay:10.37,2013-03-17 06:55:00,
2013-03-17 03:00:00,32.5,23.8,29.76,West,270,0.0,0.0,70,0.00,CLR,,0.00,WeatherDisplay:10.37,2013-03-17 07:00:00,
2013-03-17 03:05:00,32.5,23.8,29.76,West,270,0.0,0.0,70,0.00,CLR,,0.00,WeatherDisplay:10.37,2013-03-17 07:05:00,
2013-03-17 03:10:00,32.5,23.8,29.76,West,270,0.0,0.0,70,0.00,CLR,,0.00,WeatherDisplay:10.37,2013-03-17 07:10:00,
2013-03-17 03:15:00,32.5,23.8,29.76,West,270,0.0,0.0,70,0.00,CLR,,0.00,WeatherDisplay:10.37,2013-03-17 07:15:00,
2013-03-17 03:20:00,32.5,23.8,29.76,West,270,0.0,0.0,70,0.00,CLR,,0.00,WeatherDisplay:10.37,2013-03-17 07:20:00,
2013-03-17 03:25:00,32.5,23.8,29.76,West,270,0.0,0.0,70,0.00,CLR,,0.00,WeatherDisplay:10.37,2013-03-17 07:25:00,
2013-03-17 03:30:00,32.5,23.8,29.76,West,270,0.0,0.0,70,0.00,CLR,,0.00,WeatherDisplay:10.37,2013-03-17 07:30:00,
2013-03-17 03:35:00,32.5,23.8,29.76,West,270,0.0,0.0,70,0.00,CLR,,0.00,WeatherDisplay:10.37,2013-03-17 07:35:00,
2013-03-17 03:40:00,32.5,23.8,29.76,West,270,0.0,0.0,70,0.00,CLR,,0.00,WeatherDisplay:10.37,2013-03-17 07:40:00,
2013-03-17 03:45:00,32.5,23.8,29.76,West,270,0.0,0.0,70,0.00,CLR,,0.00,WeatherDisplay:10.37,2013-03-17 07:45:00,
2013-03-17 03:50:00,32.5,23.8,29.76,West,270,0.0,0.0,70,0.00,CLR,,0.00,WeatherDisplay:10.37,2013-03-17 07:50:00,
2013-03-17 03:55:00,32.5,23.8,29.76,West,270,0.0,0.0,70,0.00,CLR,,0.00,WeatherDisplay:10.37,2013-03-17 07:55:00,
2013-03-17 04:00:00,32.5,23.8,29.76,West,270,0.0,0.0,70,0.00,CLR,,0.00,WeatherDisplay:10.37,2013-03-17 08:00:00,
2013-03-17 04:05:00,32.5,23.8,29.76,West,270,0.0,0.0,70,0.00,CLR,,0.00,WeatherDisplay:10.37,2013-03-17 08:05:00,
2013-03-17 04:10:00,32.5,23.8,29.76,West,270,0.0,0.0,70,0.00,CLR,,0.00,WeatherDisplay:10.37,2013-03-17 08:10:00,
2013-03-17 04:15:00,32.5,23.8,29.76,West,270,0.0,0.0,70,0.00,CLR,,0.00,WeatherDisplay:10.37,2013-03-17 08:15:00,
2013-03-17 04:20:00,32.5,23.8,29.76,West,270,0.0,0.0,70,0.00,CLR,,0.00,WeatherDisplay:10.37,2013-03-17 08:20:00,
2013-03-17 04:25:00,32.5,23.8,29.76,West,270,0.0,0.0,70,0.00,CLR,,0.00,WeatherDisplay:10.37,2013-03-17 08:25:00,
2013-03-17 04:30:00,32.5,23.8,29.76,West,270,0.0,0.0,70,0.00,CLR,,0.00,WeatherDisplay:10.37,2013-03-17 08:30:00,
2013-03-17 04:35:00,32.5,23.8,29.76,West,270,0.0,0.0,70,0.00,CLR,,0.00,WeatherDisplay:10.37,2013-03-17 08:35:00,
2013-03-17 04:40:00,32.5,23.8,29.76,West,270,0.0,0.0,70,0.00,CLR,,0.00,WeatherDisplay:10.37,2013-03-17 08:40:00,
2013-03-17 04:45:00,32.5,23.8,29.76,West,270,0.0,0.0,70,0.00,CLR,,0.00,WeatherDisplay:10.37,2013-03-17 08:45:00,
2013-03-17 04:50:00,32.5,23.8,29.76,West,270,0.0,0.0,70,0.00,CLR,,0.00,WeatherDisplay:10.37,2013-03-17 08:50:00,
2013-03-17 04:55:00,32.5,23.8,29.76,West,270,0.0,0.0,70,0.00,CLR,,0.00,WeatherDisplay:10.37,2013-03-17 08:55:00,
2013-03-17 05:00:00,32.5,23.8,29.76,West,270,0.0,0.0,70,0.00,CLR,,0.00,WeatherDisplay:10.37,2013-03-17 09:00:00,
2013-03-17 05:05:00,32.5,23.8,29.76,West,270,0.0,0.0,70,0.00,CLR,,0.00,WeatherDisplay:10.37,2013-03-17 09:05:00,
2013-03-17 05:10:00,32.5,23.8,29.76,West,270,0.0,0.0,70,0.00,CLR,,0.00,WeatherDisplay:10.37,2013-03-17 09:10:00,
2013-03-17 05:15:00,32.5,23.8,29.76,West,270,0.0,0.0,70,0.00,CLR,,0.00,WeatherDisplay:10.37,2013-03-17 09:15:00,
2013-03-17 05:20:00,32.5,23.8,29.76,West,270,0.0,0.0,70,0.00,CLR,,0.00,WeatherDisplay:10.37,2013-03-17 09:20:00,
2013-03-17 05:25:00,32.5,23.8,29.76,West,270,0.0,0.0,70,0.00,CLR,,0.00,WeatherDisplay:10.37,2013-03-17 09:25:00,
2013-03-17 05:30:00,32.5,23.8,29.76,West,270,0.0,0.0,70,0.00,CLR,,0.00,WeatherDisplay:10.37,2013-03-17 09:30:00,
2013-03-17 05:35:00,32.5,23.8,29.76,West,270,0.0,0.0,70,0.00,CLR,,0.00,WeatherDisplay:10.37,2013-03-17 09:35:00,
2013-03-17 05:40:00,32.5,23.8,29.76,West,270,0.0,0.0,70,0.00,CLR,,0.00,WeatherDisplay:10.37,2013-03-17 09:40:00,
2013-03-17 05:45:00,32.5,23.8,29.76,West,270,0.0,0.0,70,0.00,CLR,,0.00,WeatherDisplay:10.37,2013-03-17 09:45:00,
2013-03-17 05:50:00,32.5,23.8,29.76,West,270,0.0,0.0,70,0.00,CLR,,0.00,WeatherDisplay:10.37,2013-03-17 09:50:00,
2013-03-17 05:55:00,32.5,23.8,29.76,West,270,0.0,0.0,70,0.00,CLR,,0.00,WeatherDisplay:10.37,2013-03-17 09:55:00,
2013-03-17 06:00:00,32.5,23.8,29.76,West,270,0.0,0.0,70,0.00,CLR,,0.00,WeatherDisplay:10.37,2013-03-17 10:00:00,
2013-03-17 06:05:00,32.5,23.8,29.76,West,270,0.0,0.0,70,0.00,CLR,,0.00,WeatherDisplay:10.37,2013-03-17 10:05:00,
2013-03-17 06:10:00,32.5,23.8,29.76,West,270,0.0,0.0,70,0.00,CLR,,0.00,WeatherDisplay:10.37,2013-03-17 10:10:00,
2013-03-17 06:15:00,32.5,23.8,29.76,West,270,0.0,0.0,70,0.00,CLR,,0.00,WeatherDisplay:10.37,2013-03-17 10:15:00,
2013-03-17 06:20:00,32.5,23.8,29.76,West,270,0.0,0.0,70,0.00,CLR,,0.00,WeatherDisplay:10.37,2013-03-17 10:20:00,
2013-03-17 06:25:00,32.5,23.8,29.76,West,270,0.0,0.0,70,0.00,CLR,,0.00,WeatherDisplay:10.37,2013-03-17 10:25:00,
2013-03-17 06:30:00,32.5,23.8,29.76,West,270,0.0,0.0,70,0.00,CLR,,0.00,WeatherDisplay:10.37,2013-03-17 10:30:00,
2013-03-17 06:35:00,32.5,23.8,29.76,West,270,0.0,0.0,70,0.00,CLR,,0.00,WeatherDisplay:10.37,2013-03-17 10:35:00,
2013-03-17 06:40:00,32.5,23.8,29.76,West,270,0.0,0.0,70,0.00,CLR,,0.00,WeatherDisplay:10.37,2013-03-17 10:40:00,
2013-03-17 06:45:00,32.5,23.8,29.76,West,270,0.0,0.0,70,0.00,CLR,,0.00,WeatherDisplay:10.37,2013-03-17 10:45:00,
2013-03-17 06:50:00,32.5,23.8,29.76,West,270,0.0,0.0,70,0.00,CLR,,0.00,WeatherDisplay:10.37,2013-03-17 10:50:00,
2013-03-17 06:55:00,32.5,23.8,29.76,West,270,0.0,0.0,70,0.00,CLR,,0.00,WeatherDisplay:10.37,2013-03-17 10:55:00,
2013-03-17 07:00:00,32.5,23.8,29.76,West,270,0.0,0.0,70,0.00,CLR,,0.00,WeatherDisplay:10.37,2013-03-17 11:00:00,
2013-03-17 07:05:00,32.5,23.8,29.76,West,270,0.0,0.0,70,0.00,CLR,,0.00,WeatherDisplay:10.37,2013-03-17 11:05:00,
2013-03-17 07:10:00,32.5,23.8,29.76,West,270,0.0,0.0,70,0.00,CLR,,0.00,WeatherDisplay:10.37,2013-03-17 11:10:00,
2013-03-17 07:15:00,32.5,23.8,29.76,West,270,0.0,0.0,70,0.00,CLR,,0.00,WeatherDisplay:10.37,2013-03-17 11:15:00,
2013-03-17 07:20:00,32.5,23.8,29.76,West,270,0.0,0.0,70,0.00,CLR,,0.00,WeatherDisplay:10.37,2013-03-17 11:20:00,
2013-03-17 07:25:00,32.5,23.8,29.76,West,270,0.0,0.0,70,0.00,CLR,,0.00,WeatherDisplay:10.37,2013-03-17 11:25:00,
2013-03-17 07:30:00,32.5,23.8,29.76,West,270,0.0,0.0,70,0.00,CLR,,0.00,WeatherDisplay:10.37,2013-03-17 11:30:00,
2013-03-17 07:35:00,32.5,23.8,29.76,West,270,0.0,0.0,70,0.00,CLR,,0.00,WeatherDisplay:10.37,2013-03-17 11:35:00,
2013-03-17 07:40:00,32.5,23.8,29.76,West,270,0.0,0.0,70,0.00,CLR,,0.00,WeatherDisplay:10.37,2013-03-17 11:40:00,
2013-03-17 07:45:00,32.5,23.8,29.76,West,270,0.0,0.0,70,0.00,CLR,,0.00,WeatherDisplay:10.37,2013-03-17 11:45:00,
2013-03-17 07:50:00,32.5,23.8,29.76,West,270,0.0,0.0,70,0.00,CLR,,0.00,WeatherDisplay:10.37,2013-03-17 11:50:00,
2013-03-17 07:55:00,32.5,23.8,29.76,West,270,0.0,0.0,70,0.00,CLR,,0.00,WeatherDisplay:10.37,2013-03-17 11:55:00,
2013-03-17 08:00:00,32.5,23.8,29.76,West,270,0.0,0.0,70,0.00,CLR,,0.00,WeatherDisplay:10.37,2013-03-17 12:00:00,
2013-03-17 08:05:00,32.5,23.8,29.76,West,270,0.0,0.0,70,0.00,CLR,,0.00,WeatherDisplay:10.37,2013-03-17 12:05:00,
2013-03-17 08:10:00,32.5,23.8,29.76,West,270,0.0,0.0,70,0.00,CLR,,0.00,WeatherDisplay:10.37,2013-03-17 12:10:00,
2013-03-17 08:15:00,32.5,23.8,29.76,West,270,0.0,0.0,70,0.00,CLR,,0.00,WeatherDisplay:10.37,2013-03-17 12:15:00,
2013-03-17 08:20:00,32.5,23.8,29.76,West,270,0.0,0.0,70,0.00,CLR,,0.00,WeatherDisplay:10.37,2013-03-17 12:20:00,
2013-03-17 08:25:00,32.5,23.8,29.76,West,270,0.0,0.0,70,0.00,CLR,,0.00,WeatherDisplay:10.37,2013-03-17 12:25:00,
2013-03-17 08:30:00,32.5,23.8,29.76,West,270,0.0,0.0,70,0.00,CLR,,0.00,WeatherDisplay:10.37,2013-03-17 12:30:00,
2013-03-17 08:35:00,32.5,23.8,29.76,West,270,0.0,0.0,70,0.00,CLR,,0.00,WeatherDisplay:10.37,2013-03-17 12:35:00,
2013-03-17 08:40:00,32.5,23.8,29.76,West,270,0.0,0.0,70,0.00,CLR,,0.00,WeatherDisplay:10.37,2013-03-17 12:40:00,
2013-03-17 08:45:00,32.5,23.8,29.76,West,270,0.0,0.0,70,0.00,CLR,,0.00,WeatherDisplay:10.37,2013-03-17 12:45:00,
2013-03-17 08:50:00,32.5,23.8,29.76,West,270,0.0,0.0,70,0.00,CLR,,0.00,WeatherDisplay:10.37,2013-03-17 12:50:00,
2013-03-17 08:55:00,32.5,23.8,29.76,West,270,0.0,0.0,70,0.00,CLR,,0.00,WeatherDisplay:10.37,2013-03-17 12:55:00,
2013-03-17 09:00:00,32.5,23.8,29.76,West,270,0.0,0.0,70,0.00,CLR,,0.00,WeatherDisplay:10.37,2013-03-17 13:00:00,
2013-03-17 09:05:00,32.5,23.8,29.76,West,270,0.0,0.0,70,0.00,CLR,,0.00,WeatherDisplay:10.37,2013-03-17 13:05:00,
2013-03-17 09:10:00,32.5,23.8,29.76,West,270,0.0,0.0,70,0.00,CLR,,0.00,WeatherDisplay:10.37,2013-03-17 13:10:00,
2013-03-17 09:15:00,32.5,23.8,29.76,West,270,0.0,0.0,70,0.00,CLR,,0.00,WeatherDisplay:10.37,2013-03-17 13:15:00,
2013-03-17 09:20:00,32.5,23.8,29.76,West,270,0.0,0.0,70,0.00,CLR,,0.00,WeatherDisplay:10.37,2013-03-17 13:20:00,
2013-03-17 09:25:00,32.5,23.8,29.76,West,270,0.0,0.0,70,0.00,CLR,,0.00,WeatherDisplay:10.37,2013-03-17 13:25:00,
2013-03-17 09:30:00,32.5,23.8,29.76,West,270,0.0,0.0,70,0.00,CLR,,0.00,WeatherDisplay:10.37,2013-03-17 13:30:00,
2013-03-17 09:35:00,32.5,23.8,29.76,West,270,0.0,0.0,70,0.00,CLR,,0.00,WeatherDisplay:10.37,2013-03-17 13:35:00,
2013-03-17 09:40:00,32.5,23.8,29.76,West,270,0.0,0.0,70,0.00,CLR,,0.00,WeatherDisplay:10.37,2013-03-17 13:40:00,
2013-03-17 09:45:00,32.5,23.8,29.76,West,270,0.0,0.0,70,0.00,CLR,,0.00,WeatherDisplay:10.37,2013-03-17 13:45:00,
2013-03-17 09:50:00,32.5,23.8,29.76,West,270,0.0,0.0,70,0.00,CLR,,0.00,WeatherDisplay:10.37,2013-03-17 13:50:00,
2013-03-17 09:55:00,32.5,23.8,29.76,West,270,0.0,0.0,70,0.00,CLR,,0.00,WeatherDisplay:10.37,2013-03-17 13:55:00,
2013-03-17 10:00:00,32.5,23.8,29.76,West,270,0.0,0.0,70,0.00,CLR,,0.00,WeatherDisplay:10.37,2013-03-17 14:00:00,
2013-03-17 10:03:00,32.5,23.8,29.76,West,270,0.0,0.0,70,0.00,CLR,,0.00,WeatherDisplay:10.37,2013-03-17 14:03:00,
2013-03-17 10:05:00,32.5,23.8,29.76,West,270,0.0,0.0,70,0.00,CLR,,0.00,WeatherDisplay:10.37,2013-03-17 14:05:00,
2013-03-17 10:10:00,32.5,23.8,29.76,West,270,0.0,0.0,70,0.00,CLR,,0.00,WeatherDisplay:10.37,2013-03-17 14:10:00,
2013-03-17 10:52:00,40.1,19.9,29.95,WNW,292,2.4,2.4,44,0.00,CLR,,0.00,WeatherDisplay:10.37,2013-03-17 14:52:00,
2013-03-17 10:57:00,40.5,20.2,29.95,WSW,248,1.6,2.3,44,0.00,CLR,,0.00,WeatherDisplay:10.37,2013-03-17 14:57:00,
2013-03-17 11:02:00,40.6,19.3,29.96,West,270,3.1,6.9,42,0.00,CLR,,0.00,WeatherDisplay:10.37,2013-03-17 15:02:00,
2013-03-17 11:07:00,40.6,19.3,29.96,NNE,22,7.1,8.1,42,0.00,CLR,,0.00,WeatherDisplay:10.37,2013-03-17 15:07:00,
2013-03-17 11:12:00,40.1,18.8,29.96,West,270,1.1,1.1,42,0.00,CLR,,0.00,WeatherDisplay:10.37,2013-03-17 15:12:00,
2013-03-17 11:17:00,39.9,19.7,29.96,SW,225,1.6,1.6,44,0.00,CLR,,0.00,WeatherDisplay:10.37,2013-03-17 15:17:00,
2013-03-17 11:22:00,40.1,19.9,29.96,SW,225,2.0,4.6,44,0.00,CLR,,0.00,WeatherDisplay:10.37,2013-03-17 15:22:00,
2013-03-17 11:28:00,40.3,19.5,29.96,SSW,202,1.1,4.6,43,0.00,CLR,,0.00,WeatherDisplay:10.37,2013-03-17 15:28:00,
2013-03-17 11:33:00,40.5,19.7,29.96,NNW,338,2.9,4.6,43,0.00,CLR,,0.00,WeatherDisplay:10.37,2013-03-17 15:33:00,
2013-03-17 11:38:00,40.3,19.5,29.96,North,0,4.3,8.1,43,0.00,CLR,,0.00,WeatherDisplay:10.37,2013-03-17 15:38:00,
2013-03-17 11:43:00,40.1,19.9,29.96,SW,225,0.9,2.3,44,0.00,CLR,,0.00,WeatherDisplay:10.37,2013-03-17 15:43:00,
2013-03-17 11:48:00,40.1,20.4,29.96,North,0,3.3,3.3,45,0.00,CLR,,0.00,WeatherDisplay:10.37,2013-03-17 15:48:00,
2013-03-17 11:53:00,40.6,20.9,29.96,NW,315,3.8,3.8,45,0.00,CLR,,0.00,WeatherDisplay:10.37,2013-03-17 15:53:00,
2013-03-17 11:58:00,41.2,20.9,29.96,SSE,158,1.8,8.1,44,0.00,CLR,,0.00,WeatherDisplay:10.37,2013-03-17 15:58:00,
2013-03-17 12:03:00,41.5,21.2,29.96,WSW,248,1.6,2.3,44,0.00,CLR,,0.00,WeatherDisplay:10.37,2013-03-17 16:03:00,
2013-03-17 12:08:00,41.5,20.1,29.96,WNW,292,2.2,3.5,42,0.00,CLR,,0.00,WeatherDisplay:10.37,2013-03-17 16:08:00,
2013-03-17 12:13:00,41.7,20.8,29.96,WSW,248,1.8,1.8,43,0.00,CLR,,0.00,WeatherDisplay:10.37,2013-03-17 16:13:00,
2013-03-17 12:18:00,41.7,19.7,29.96,West,270,1.8,1.8,41,0.00,CLR,,0.00,WeatherDisplay:10.37,2013-03-17 16:18:00,
2013-03-17 12:23:00,41.7,20.3,29.96,West,270,1.4,1.4,42,0.00,CLR,,0.00,WeatherDisplay:10.37,2013-03-17 16:23:00,
2013-03-17 12:28:00,41.9,19.3,29.96,NNW,338,5.2,5.2,40,0.00,CLR,,0.00,WeatherDisplay:10.37,2013-03-17 16:28:00,
2013-03-17 12:33:00,41.7,19.7,29.95,NNW,338,1.8,3.5,41,0.00,CLR,,0.00,WeatherDisplay:10.37,2013-03-17 16:33:00,
2013-03-17 12:38:00,41.4,20.0,29.95,West,270,0.7,2.3,42,0.00,CLR,,0.00,WeatherDisplay:10.37,2013-03-17 16:38:00,
2013-03-17 12:43:00,41.5,20.7,29.95,West,270,2.9,5.4,43,0.00,CLR,,0.00,WeatherDisplay:10.37,2013-03-17 16:43:00,
2013-03-17 12:48:00,42.4,20.9,29.95,NW,315,3.6,5.8,42,0.00,CLR,,0.00,WeatherDisplay:10.37,2013-03-17 16:48:00,
2013-03-17 12:53:00,42.6,21.1,29.95,SW,225,1.8,1.8,42,0.00,CLR,,0.00,WeatherDisplay:10.37,2013-03-17 16:53:00,
2013-03-17 12:58:00,42.6,19.4,29.94,West,270,0.7,2.3,39,0.00,CLR,,0.00,WeatherDisplay:10.37,2013-03-17 16:58:00,
2013-03-17 13:03:00,42.4,18.6,29.94,NNW,338,3.8,4.6,38,0.00,CLR,,0.00,WeatherDisplay:10.37,2013-03-17 17:03:00,
2013-03-17 13:08:00,42.8,20.7,29.94,North,0,3.3,3.5,41,0.00,CLR,,0.00,WeatherDisplay:10.37,2013-03-17 17:08:00,
2013-03-17 13:13:00,43.3,19.4,29.94,NNW,338,2.9,2.9,38,0.00,CLR,,0.00,WeatherDisplay:10.37,2013-03-17 17:13:00,
2013-03-17 13:18:00,43.0,19.7,29.94,NNW,338,3.6,4.6,39,0.00,CLR,,0.00,WeatherDisplay:10.37,2013-03-17 17:18:00,
2013-03-17 13:23:00,43.0,18.5,29.94,SSW,202,2.4,0.0,37,0.00,CLR,,0.00,WeatherDisplay:10.37,2013-03-17 17:23:00,
2013-03-17 13:28:00,42.6,18.8,29.94,WNW,292,2.0,2.3,38,0.00,CLR,,0.00,WeatherDisplay:10.37,2013-03-17 17:28:00,
2013-03-17 13:33:00,43.2,19.8,29.93,WNW,292,5.4,5.8,39,0.00,CLR,,0.00,WeatherDisplay:10.37,2013-03-17 17:33:00,
2013-03-17 13:38:00,43.3,20.6,29.94,North,0,5.9,13.8,40,0.00,CLR,,0.00,WeatherDisplay:10.37,2013-03-17 17:38:00,
2013-03-17 13:43:00,42.4,20.4,29.94,North,0,10.7,10.7,41,0.00,CLR,,0.00,WeatherDisplay:10.37,2013-03-17 17:43:00,
2013-03-17 13:48:00,41.7,20.8,29.95,NW,315,4.0,6.9,43,0.00,CLR,,0.00,WeatherDisplay:10.37,2013-03-17 17:48:00,
2013-03-17 13:53:00,41.5,20.7,29.95,NW,315,3.8,6.9,43,0.00,CLR,,0.00,WeatherDisplay:10.37,2013-03-17 17:53:00,
2013-03-17 13:58:00,41.5,20.1,29.95,NNW,338,4.5,4.6,42,0.00,CLR,,0.00,WeatherDisplay:10.37,2013-03-17 17:58:00,
2013-03-17 14:03:00,41.0,19.6,29.95,ENE,68,3.6,8.1,42,0.00,CLR,,0.00,WeatherDisplay:10.37,2013-03-17 18:03:00,
2013-03-17 14:08:00,40.8,19.5,29.95,ENE,68,4.0,8.1,42,0.00,CLR,,0.00,WeatherDisplay:10.37,2013-03-17 18:08:00,
2013-03-17 14:13:00,41.2,19.8,29.95,NE,45,4.3,10.4,42,0.00,CLR,,0.00,WeatherDisplay:10.37,2013-03-17 18:13:00,
2013-03-17 14:18:00,41.0,19.1,29.95,North,0,7.1,7.1,41,0.00,CLR,,0.00,WeatherDisplay:10.37,2013-03-17 18:18:00,
2013-03-17 14:23:00,40.5,18.0,29.95,NE,45,5.9,9.2,40,0.00,CLR,,0.00,WeatherDisplay:10.37,2013-03-17 18:23:00,
2013-03-17 14:28:00,40.6,19.3,29.95,WNW,292,2.6,5.8,42,0.00,CLR,,0.00,WeatherDisplay:10.37,2013-03-17 18:28:00,
2013-03-17 14:33:00,40.5,18.0,29.95,North,0,8.1,8.1,40,0.00,CLR,,0.00,WeatherDisplay:10.37,2013-03-17 18:33:00,
2013-03-17 14:38:00,40.3,19.0,29.95,NE,45,2.4,8.1,42,0.00,CLR,,0.00,WeatherDisplay:10.37,2013-03-17 18:38:00,
2013-03-17 14:43:00,40.3,20.1,29.95,ENE,68,3.3,8.1,44,0.00,CLR,,0.00,WeatherDisplay:10.37,2013-03-17 18:43:00,
2013-03-17 14:48:00,40.6,19.3,29.96,North,0,1.6,5.8,42,0.00,CLR,,0.00,WeatherDisplay:10.37,2013-03-17 18:48:00,
2013-03-17 14:53:00,40.5,19.1,29.96,NE,45,6.9,8.1,42,0.00,CLR,,0.00,WeatherDisplay:10.37,2013-03-17 18:53:00,
2013-03-17 14:58:00,40.3,19.0,29.97,NNE,22,5.6,6.9,42,0.00,CLR,,0.00,WeatherDisplay:10.37,2013-03-17 18:58:00,
2013-03-17 15:03:00,40.1,18.3,29.97,ENE,68,3.3,4.6,41,0.00,CLR,,0.00,WeatherDisplay:10.37,2013-03-17 19:03:00,
2013-03-17 15:08:00,40.1,18.3,29.97,ENE,68,3.3,3.5,41,0.00,CLR,,0.00,WeatherDisplay:10.37,2013-03-17 19:08:00,
2013-03-17 15:13:00,39.7,17.9,29.97,NNW,338,4.0,4.6,41,0.00,CLR,,0.00,WeatherDisplay:10.37,2013-03-17 19:13:00,
2013-03-17 15:18:00,39.7,17.9,29.98,NE,45,5.2,5.8,41,0.00,CLR,,0.00,WeatherDisplay:10.37,2013-03-17 19:18:00,
2013-03-17 15:23:00,39.2,17.4,29.98,NNW,338,9.7,9.7,41,0.00,CLR,,0.00,WeatherDisplay:10.37,2013-03-17 19:23:00,
2013-03-17 15:28:00,39.0,16.7,29.98,North,0,2.4,9.2,40,0.00,CLR,,0.00,WeatherDisplay:10.37,2013-03-17 19:28:00,
2013-03-17 15:33:00,39.0,16.7,29.98,West,270,3.3,5.8,40,0.00,CLR,,0.00,WeatherDisplay:10.37,2013-03-17 19:33:00,
2013-03-17 15:38:00,38.8,16.5,29.98,North,0,3.6,13.8,40,0.00,CLR,,0.00,WeatherDisplay:10.37,2013-03-17 19:38:00,
2013-03-17 15:43:00,38.8,16.5,29.98,WNW,292,2.6,8.1,40,0.00,CLR,,0.00,WeatherDisplay:10.37,2013-03-17 19:43:00,
2013-03-17 15:48:00,39.0,16.1,29.99,North,0,5.6,9.2,39,0.00,CLR,,0.00,WeatherDisplay:10.37,2013-03-17 19:48:00,
2013-03-17 15:53:00,38.7,15.8,29.99,North,0,0.5,6.9,39,0.00,CLR,,0.00,WeatherDisplay:10.37,2013-03-17 19:53:00,
2013-03-17 15:58:00,38.7,15.8,29.99,NW,315,5.9,8.1,39,0.00,CLR,,0.00,WeatherDisplay:10.37,2013-03-17 19:58:00,
2013-03-17 16:03:00,38.8,17.7,29.99,NNE,22,2.4,2.4,42,0.00,CLR,,0.00,WeatherDisplay:10.37,2013-03-17 20:03:00,
2013-03-17 16:08:00,38.8,16.5,29.99,WNW,292,2.0,8.1,40,0.00,CLR,,0.00,WeatherDisplay:10.37,2013-03-17 20:08:00,
2013-03-17 16:13:00,38.5,15.6,30.00,North,0,8.3,10.4,39,0.00,CLR,,0.00,WeatherDisplay:10.37,2013-03-17 20:13:00,
2013-03-17 16:18:00,38.5,16.2,30.00,North,0,9.2,9.2,40,0.00,CLR,,0.00,WeatherDisplay:10.37,2013-03-17 20:18:00,
2013-03-17 16:23:00,38.5,16.8,30.00,NE,45,6.4,9.2,41,0.00,CLR,,0.00,WeatherDisplay:10.37,2013-03-17 20:23:00,
2013-03-17 16:28:00,38.5,16.2,30.00,East,90,3.3,8.1,40,0.00,CLR,,0.00,WeatherDisplay:10.37,2013-03-17 20:28:00,
2013-03-17 16:33:00,38.5,16.2,30.00,NW,315,1.1,5.8,40,0.00,CLR,,0.00,WeatherDisplay:10.37,2013-03-17 20:33:00,
2013-03-17 16:38:00,38.3,15.5,30.00,NNW,338,8.5,8.5,39,0.00,CLR,,0.00,WeatherDisplay:10.37,2013-03-17 20:38:00,
2013-03-17 16:43:00,37.9,16.3,30.00,NNW,338,1.8,4.6,41,0.00,CLR,,0.00,WeatherDisplay:10.37,2013-03-17 20:43:00,
2013-03-17 16:48:00,37.8,15.0,30.01,West,270,4.7,9.2,39,0.00,CLR,,0.00,WeatherDisplay:10.37,2013-03-17 20:48:00,
2013-03-17 16:53:00,37.8,15.6,30.01,WNW,292,5.4,5.4,40,0.00,CLR,,0.00,WeatherDisplay:10.37,2013-03-17 20:53:00,
2013-03-17 16:58:00,37.8,16.1,30.01,East,90,0.9,2.3,41,0.00,CLR,,0.00,WeatherDisplay:10.37,2013-03-17 20:58:00,
2013-03-17 17:03:00,37.8,15.6,30.01,NNW,338,2.4,5.8,40,0.00,CLR,,0.00,WeatherDisplay:10.37,2013-03-17 21:03:00,
2013-03-17 17:08:00,37.2,15.1,30.02,NW,315,3.8,4.6,40,0.00,CLR,,0.00,WeatherDisplay:10.37,2013-03-17 21:08:00,
2013-03-17 17:13:00,37.0,15.5,30.02,NW,315,4.0,5.8,41,0.00,CLR,,0.00,WeatherDisplay:10.37,2013-03-17 21:13:00,
2013-03-17 17:18:00,37.0,15.5,30.02,NE,45,5.2,5.2,41,0.00,CLR,,0.00,WeatherDisplay:10.37,2013-03-17 21:18:00,
2013-03-17 17:23:00,37.0,15.5,30.02,North,0,5.6,5.8,41,0.00,CLR,,0.00,WeatherDisplay:10.37,2013-03-17 21:23:00,
2013-03-17 17:28:00,36.9,15.3,30.02,NNE,22,3.3,4.6,41,0.00,CLR,,0.00,WeatherDisplay:10.37,2013-03-17 21:28:00,
2013-03-17 17:33:00,36.7,15.2,30.03,North,0,5.9,10.4,41,0.00,CLR,,0.00,WeatherDisplay:10.37,2013-03-17 21:33:00,
2013-03-17 17:38:00,36.7,15.2,30.03,North,0,3.3,4.6,41,0.00,CLR,,0.00,WeatherDisplay:10.37,2013-03-17 21:38:00,
2013-03-17 17:43:00,36.5,15.6,30.03,North,0,2.6,10.4,42,0.00,CLR,,0.00,WeatherDisplay:10.37,2013-03-17 21:43:00,
2013-03-17 17:48:00,36.5,15.0,30.03,NNE,22,7.6,7.6,41,0.00,CLR,,0.00,WeatherDisplay:10.37,2013-03-17 21:48:00,
2013-03-17 17:53:00,36.3,15.4,30.04,NNW,338,2.0,4.6,42,0.00,CLR,,0.00,WeatherDisplay:10.37,2013-03-17 21:53:00,
2013-03-17 17:58:00,36.1,15.2,30.04,East,90,1.8,4.6,42,0.00,CLR,,0.00,WeatherDisplay:10.37,2013-03-17 21:58:00,
2013-03-17 18:03:00,36.0,15.1,30.04,NNE,22,3.3,3.5,42,0.00,CLR,,0.00,WeatherDisplay:10.37,2013-03-17 22:03:00,
2013-03-17 18:08:00,36.0,15.1,30.05,NW,315,1.1,2.3,42,0.00,CLR,,0.00,WeatherDisplay:10.37,2013-03-17 22:08:00,
2013-03-17 18:13:00,35.8,14.9,30.05,NNW,338,1.1,2.3,42,0.00,CLR,,0.00,WeatherDisplay:10.37,2013-03-17 22:13:00,
2013-03-17 18:18:00,35.6,14.7,30.05,NE,45,3.6,5.8,42,0.00,CLR,,0.00,WeatherDisplay:10.37,2013-03-17 22:18:00,
2013-03-17 18:23:00,35.2,14.4,30.05,NNW,338,1.1,4.6,42,0.00,CLR,,0.00,WeatherDisplay:10.37,2013-03-17 22:23:00,
2013-03-17 18:28:00,35.1,14.2,30.05,North,0,1.1,2.3,42,0.00,CLR,,0.00,WeatherDisplay:10.37,2013-03-17 22:28:00,
2013-03-17 18:33:00,34.9,14.1,30.06,NNW,338,0.9,3.5,42,0.00,CLR,,0.00,WeatherDisplay:10.37,2013-03-17 22:33:00,
2013-03-17 18:38:00,34.5,13.8,30.06,North,0,0.5,2.3,42,0.00,CLR,,0.00,WeatherDisplay:10.37,2013-03-17 22:38:00,
2013-03-17 18:43:00,34.3,13.6,30.07,NW,315,0.5,2.3,42,0.00,CLR,,0.00,WeatherDisplay:10.37,2013-03-17 22:43:00,
2013-03-17 18:48:00,34.2,13.4,30.07,North,0,2.4,4.6,42,0.00,CLR,,0.00,WeatherDisplay:10.37,2013-03-17 22:48:00,
2013-03-17 18:53:00,34.2,12.9,30.07,East,90,0.5,4.6,41,0.00,CLR,,0.00,WeatherDisplay:10.37,2013-03-17 22:53:00,
2013-03-17 18:58:00,33.8,13.1,30.07,NW,315,1.1,2.3,42,0.00,CLR,,0.00,WeatherDisplay:10.37,2013-03-17 22:58:00,
2013-03-17 19:03:00,33.6,12.9,30.08,NW,315,1.1,1.1,42,0.00,CLR,,0.00,WeatherDisplay:10.37,2013-03-17 23:03:00,
2013-03-17 19:08:00,33.3,13.1,30.08,North,0,0.0,0.0,43,0.00,CLR,,0.00,WeatherDisplay:10.37,2013-03-17 23:08:00,
2013-03-17 19:13:00,33.1,13.0,30.08,NNE,22,1.6,1.6,43,0.00,CLR,,0.00,WeatherDisplay:10.37,2013-03-17 23:13:00,
2013-03-17 19:18:00,32.7,12.7,30.09,NNE,22,0.5,2.3,43,0.00,CLR,,0.00,WeatherDisplay:10.37,2013-03-17 23:18:00,
2013-03-17 19:23:00,32.7,13.2,30.09,NNW,338,0.7,1.1,44,0.00,CLR,,0.00,WeatherDisplay:10.37,2013-03-17 23:23:00,
2013-03-17 19:28:00,32.4,12.8,30.10,NW,315,4.7,4.7,44,0.00,CLR,,0.00,WeatherDisplay:10.37,2013-03-17 23:28:00,
2013-03-17 19:33:00,32.2,12.7,30.10,North,0,2.4,2.4,44,0.00,CLR,,0.00,WeatherDisplay:10.37,2013-03-17 23:33:00,
2013-03-17 19:38:00,32.2,12.7,30.11,NW,315,1.1,2.3,44,0.00,CLR,,0.00,WeatherDisplay:10.37,2013-03-17 23:38:00,
2013-03-17 19:43:00,32.2,12.7,30.11,North,0,0.5,2.3,44,0.00,CLR,,0.00,WeatherDisplay:10.37,2013-03-17 23:43:00,
2013-03-17 19:48:00,32.2,13.2,30.11,North,0,0.7,2.3,45,0.00,CLR,,0.00,WeatherDisplay:10.37,2013-03-17 23:48:00,
2013-03-17 19:53:00,32.0,13.0,30.12,NW,315,0.2,1.1,45,0.00,CLR,,0.00,WeatherDisplay:10.37,2013-03-17 23:53:00,
2013-03-17 19:58:00,31.6,12.7,30.12,NW,315,0.2,1.1,45,0.00,CLR,,0.00,WeatherDisplay:10.37,2013-03-17 23:58:00,
2013-03-17 20:04:00,31.6,13.2,30.12,NW,315,2.4,2.4,46,0.00,CLR,,0.00,WeatherDisplay:10.37,2013-03-18 00:04:00,
2013-03-17 20:09:00,31.3,12.9,30.12,NW,315,0.0,1.1,46,0.00,CLR,,0.00,WeatherDisplay:10.37,2013-03-18 00:09:00,
2013-03-17 20:14:00,31.1,13.2,30.12,West,270,0.5,2.3,47,0.00,CLR,,0.00,WeatherDisplay:10.37,2013-03-18 00:14:00,
2013-03-17 20:19:00,30.9,13.0,30.13,WNW,292,0.5,2.3,47,0.00,CLR,,0.00,WeatherDisplay:10.37,2013-03-18 00:19:00,
2013-03-17 20:24:00,30.7,12.9,30.13,West,270,0.5,1.1,47,0.00,CLR,,0.00,WeatherDisplay:10.37,2013-03-18 00:24:00,
2013-03-17 20:29:00,30.6,13.2,30.13,NW,315,1.1,1.1,48,0.00,CLR,,0.00,WeatherDisplay:10.37,2013-03-18 00:29:00,
2013-03-17 20:34:00,30.4,13.0,30.14,NNW,338,0.0,1.1,48,0.00,CLR,,0.00,WeatherDisplay:10.37,2013-03-18 00:34:00,
2013-03-17 20:39:00,30.2,12.8,30.15,West,270,0.5,1.1,48,0.00,CLR,,0.00,WeatherDisplay:10.37,2013-03-18 00:39:00,
2013-03-17 20:44:00,29.8,12.5,30.15,WNW,292,0.5,0.5,48,0.00,CLR,,0.00,WeatherDisplay:10.37,2013-03-18 00:44:00,
2013-03-17 20:49:00,29.8,12.5,30.15,NNW,338,0.0,0.0,48,0.00,CLR,,0.00,WeatherDisplay:10.37,2013-03-18 00:49:00,
2013-03-17 20:54:00,29.5,12.2,30.15,NW,315,0.9,1.1,48,0.00,CLR,,0.00,WeatherDisplay:10.37,2013-03-18 00:54:00,
2013-03-17 20:59:00,29.1,12.3,30.15,WNW,292,0.5,0.0,49,0.00,CLR,,0.00,WeatherDisplay:10.37,2013-03-18 00:59:00,
2013-03-17 21:04:00,29.1,12.8,30.15,WNW,292,0.5,0.5,50,0.00,CLR,,0.00,WeatherDisplay:10.37,2013-03-18 01:04:00,
2013-03-17 21:09:00,28.9,12.6,30.15,WNW,292,0.0,0.0,50,0.00,CLR,,0.00,WeatherDisplay:10.37,2013-03-18 01:09:00,
2013-03-17 21:14:00,28.8,12.9,30.16,NW,315,0.0,0.0,51,0.00,CLR,,0.00,WeatherDisplay:10.37,2013-03-18 01:14:00,
2013-03-17 21:19:00,28.4,12.6,30.16,ENE,68,0.2,0.2,51,0.00,CLR,,0.00,WeatherDisplay:10.37,2013-03-18 01:19:00,
2013-03-17 21:24:00,28.4,12.1,30.16,NNE,22,0.2,0.2,50,0.00,CLR,,0.00,WeatherDisplay:10.37,2013-03-18 01:24:00,
2013-03-17 21:29:00,28.0,11.8,30.17,NNE,22,0.2,0.2,50,0.00,CLR,,0.00,WeatherDisplay:10.37,2013-03-18 01:29:00,
2013-03-17 21:34:00,28.0,12.2,30.17,NNE,22,0.2,0.0,51,0.00,CLR,,0.00,WeatherDisplay:10.37,2013-03-18 01:34:00,
2013-03-17 21:39:00,28.0,12.2,30.17,NNE,22,0.2,0.2,51,0.00,CLR,,0.00,WeatherDisplay:10.37,2013-03-18 01:39:00,
2013-03-17 21:44:00,28.0,12.7,30.17,NNE,22,0.2,0.2,52,0.00,CLR,,0.00,WeatherDisplay:10.37,2013-03-18 01:44:00,
2013-03-17 21:51:00,28.0,12.7,30.18,NNE,22,0.2,0.2,52,0.00,CLR,,0.00,WeatherDisplay:10.37,2013-03-18 01:51:00,
2013-03-17 21:56:00,27.9,12.5,30.18,NNE,22,0.2,0.2,52,0.00,CLR,,0.00,WeatherDisplay:10.37,2013-03-18 01:56:00,
2013-03-17 22:01:00,27.7,12.3,30.18,NNE,22,0.2,0.2,52,0.00,CLR,,0.00,WeatherDisplay:10.37,2013-03-18 02:01:00,
2013-03-17 22:06:00,27.7,12.3,30.19,NNE,22,0.2,0.2,52,0.00,CLR,,0.00,WeatherDisplay:10.37,2013-03-18 02:06:00,
2013-03-17 22:12:00,27.5,12.2,30.19,NNE,22,0.2,0.2,52,0.00,CLR,,0.00,WeatherDisplay:10.37,2013-03-18 02:12:00,
2013-03-17 22:17:00,27.3,12.0,30.19,NNE,22,0.2,0.2,52,0.00,CLR,,0.00,WeatherDisplay:10.37,2013-03-18 02:17:00,
2013-03-17 22:22:00,27.1,12.3,30.19,NNE,22,0.2,0.2,53,0.00,CLR,,0.00,WeatherDisplay:10.37,2013-03-18 02:22:00,
2013-03-17 22:27:00,27.1,12.3,30.19,NNE,22,0.2,0.2,53,0.00,CLR,,0.00,WeatherDisplay:10.37,2013-03-18 02:27:00,
2013-03-17 22:32:00,27.0,12.1,30.19,NNE,22,0.2,0.2,53,0.00,CLR,,0.00,WeatherDisplay:10.37,2013-03-18 02:32:00,
2013-03-17 22:37:00,27.0,12.1,30.19,NNE,22,0.2,0.2,53,0.00,CLR,,0.00,WeatherDisplay:10.37,2013-03-18 02:37:00,
2013-03-17 22:42:00,26.8,12.3,30.20,NNE,22,0.2,0.2,54,0.00,CLR,,0.00,WeatherDisplay:10.37,2013-03-18 02:42:00,
2013-03-17 22:47:00,26.8,12.3,30.20,NNE,22,0.2,0.2,54,0.00,CLR,,0.00,WeatherDisplay:10.37,2013-03-18 02:47:00,
2013-03-17 22:52:00,27.0,12.9,30.21,NNE,22,0.2,0.2,55,0.00,CLR,,0.00,WeatherDisplay:10.37,2013-03-18 02:52:00,
2013-03-17 22:57:00,27.5,13.4,30.21,NNE,22,0.2,0.2,55,0.00,CLR,,0.00,WeatherDisplay:10.37,2013-03-18 02:57:00,
2013-03-17 23:02:00,27.5,13.0,30.21,NNE,22,0.2,0.2,54,0.00,CLR,,0.00,WeatherDisplay:10.37,2013-03-18 03:02:00,
2013-03-17 23:07:00,27.1,13.1,30.21,NNE,22,0.2,0.0,55,0.00,CLR,,0.00,WeatherDisplay:10.37,2013-03-18 03:07:00,
2013-03-17 23:12:00,27.0,12.9,30.21,NNE,22,0.2,0.0,55,0.00,CLR,,0.00,WeatherDisplay:10.37,2013-03-18 03:12:00,
2013-03-17 23:17:00,27.0,12.9,30.21,NNE,22,0.2,0.2,55,0.00,CLR,,0.00,WeatherDisplay:10.37,2013-03-18 03:17:00,
2013-03-17 23:22:00,27.0,12.9,30.21,NNE,22,0.2,0.2,55,0.00,CLR,,0.00,WeatherDisplay:10.37,2013-03-18 03:22:00,
2013-03-17 23:27:00,26.8,12.8,30.22,NNE,22,0.2,0.2,55,0.00,CLR,,0.00,WeatherDisplay:10.37,2013-03-18 03:27:00,
2013-03-17 23:32:00,27.0,12.9,30.22,NNE,22,0.2,0.2,55,0.00,CLR,,0.00,WeatherDisplay:10.37,2013-03-18 03:32:00,
2013-03-17 23:37:00,27.1,13.1,30.22,NNE,22,0.2,0.2,55,0.00,CLR,,0.00,WeatherDisplay:10.37,2013-03-18 03:37:00,
2013-03-17 23:42:00,27.3,12.8,30.22,NNE,22,0.2,0.2,54,0.00,CLR,,0.00,WeatherDisplay:10.37,2013-03-18 03:42:00,
2013-03-17 23:47:00,27.5,13.0,30.23,NNE,22,0.2,0.2,54,0.00,CLR,,0.00,WeatherDisplay:10.37,2013-03-18 03:47:00,
2013-03-17 23:52:00,27.7,13.2,30.23,NNE,22,0.2,0.2,54,0.00,CLR,,0.00,WeatherDisplay:10.37,2013-03-18 03:52:00,
2013-03-17 23:57:00,28.0,13.5,30.23,NNE,22,0.2,0.0,54,0.00,CLR,,0.00,WeatherDisplay:10.37,2013-03-18 03:57:00,